DW9435 Weather Reports


Display with metric or nautical units.
time (UTC)temp
F
wind
direction
speed
MPH
gust
MPH
rain 1hr
in
rain 24hr
in
rain mn
in
humidity
%
barometer
mb
20260502191552 65 311 4.0 15.0 0.00 0.00 0.00 18 1014.7
20260502190045 64 218 8.0 17.0 0.00 0.00 0.00 18 1014.9
20260502184547 64 293 10.0 16.0 0.00 0.00 0.00 19 1015.3
20260502183050 63 276 5.0 18.0 0.00 0.00 0.00 23 1015.4
20260502181540 63 195 12.0 19.0 0.00 0.00 0.00 24 1015.6
20260502163019 60 236 6.0 16.0 0.00 0.00 0.00 24 1016.2
20260502161518 60 233 5.0 12.0 0.00 0.00 0.00 27 1016.1
20260502151513 57 109 9.0 16.0 0.00 0.00 0.00 27 1016.4
20260502130106 54 82 1.0 11.0 0.00 0.00 0.00 25 1016.3
20260502123057 53 210 5.0 12.0 0.00 0.00 0.00 28 1016.2
20260502121556 50 160 1.0 2.0 0.00 0.00 0.00 35 1016.2
20260502114551 54 8 2.0 9.0 0.00 0.00 0.00 28 1016.1
20260502113047 56 311 3.0 12.0 0.00 0.00 0.00 27 1016.0
20260502111549 55 169 7.0 13.0 0.00 0.00 0.00 28 1016.2
20260502110044 55 198 6.0 13.0 0.00 0.00 0.00 27 1016.2
20260502104543 55 277 0.0 10.0 0.00 0.00 0.00 26 1016.3
20260502103045 56 129 5.0 12.0 0.00 0.00 0.00 25 1016.2
20260502101550 56 134 7.0 19.0 0.00 0.00 0.00 28 1016.2
20260502091532 53 345 0.0 3.0 0.00 0.00 0.00 32 1016.2
20260502071518 53 142 1.0 3.0 0.00 0.00 0.00 34 1016.7
20260502070015 55 98 2.0 3.0 0.00 0.00 0.00 31 1016.6
20260502064513 55 115 2.0 3.0 0.00 0.00 0.00 30 1016.7
20260502063023 55 105 1.0 2.0 0.00 0.00 0.00 31 1016.7
20260502061509 55 92 2.0 3.0 0.00 0.00 0.00 31 1016.8
20260502060006 54 122 2.0 4.0 0.00 0.00 0.00 28 1016.7
20260502054506 55 88 2.0 4.0 0.00 0.00 0.00 27 1016.7
20260502053005 55 89 1.0 4.0 0.00 0.00 0.00 27 1016.7
20260502051504 55 79 1.0 3.0 0.00 0.00 0.00 28 1016.6
20260502050003 55 72 2.0 4.0 0.00 0.00 0.00 28 1016.6
20260502044503 55 76 4.0 5.0 0.00 0.00 0.00 28 1016.6
20260502043002 55 86 3.0 5.0 0.00 0.00 0.00 28 1016.5
20260502041501 54 77 2.0 4.0 0.00 0.00 0.00 31 1016.4
20260502040002 54 67 3.0 5.0 0.00 0.00 0.00 31 1016.4
20260502034600 54 60 3.0 5.0 0.00 0.00 0.00 31 1016.2
20260502033108 55 88 1.0 4.0 0.00 0.00 0.00 30 1016.0
20260502031559 55 48 1.0 5.0 0.00 0.00 0.00 30 1015.8
20260502030059 56 64 2.0 6.0 0.00 0.00 0.00 30 1015.5
20260502024557 56 36 1.0 5.0 0.00 0.00 0.00 30 1015.4
20260502023059 57 27 2.0 7.0 0.00 0.00 0.00 30 1015.3
20260502021557 58 236 4.0 12.0 0.00 0.00 0.00 29 1015.1
20260502020106 59 333 6.0 13.0 0.00 0.00 0.00 28 1015.0
20260502014555 60 348 7.0 13.0 0.00 0.00 0.00 27 1014.9
20260502013054 60 318 5.0 13.0 0.00 0.00 0.00 28 1014.8
20260502011558 60 331 11.0 17.0 0.00 0.00 0.00 27 1014.7
20260502010059 61 330 4.0 13.0 0.00 0.00 0.00 28 1014.7
20260502004555 61 336 6.0 16.0 0.00 0.00 0.00 27 1014.7
20260502003052 61 321 11.0 18.0 0.00 0.00 0.00 26 1014.8
20260502001559 61 335 11.0 16.0 0.00 0.00 0.00 26 1014.8
20260502000051 61 321 8.0 20.0 0.00 0.00 0.00 26 1014.9
20260501234550 61 317 8.0 18.0 0.00 0.00 0.00 26 1014.8
20260501233103 62 340 9.0 17.0 0.00 0.00 0.00 26 1014.7
20260501231559 62 22 7.0 15.0 0.00 0.00 0.00 26 1014.8
20260501230049 62 323 7.0 14.0 0.00 0.00 0.00 24 1014.8
20260501224548 62 326 7.0 15.0 0.00 0.00 0.00 24 1014.9
20260501223110 62 328 6.0 15.0 0.00 0.00 0.00 25 1015.0
20260501221546 62 333 7.0 18.0 0.00 0.00 0.00 24 1015.2
20260501220046 63 44 8.0 13.0 0.00 0.00 0.00 23 1015.4
20260501214545 62 1 3.0 10.0 0.00 0.00 0.00 25 1015.5
20260501213043 61 333 6.0 14.0 0.00 0.00 0.00 24 1015.7
20260501211542 62 346 1.0 9.0 0.00 0.00 0.00 25 1015.8
20260501210041 61 321 7.0 12.0 0.00 0.00 0.00 25 1015.8
20260501204543 61 25 0.0 9.0 0.00 0.00 0.00 25 1016.0
20260501203041 60 328 3.0 7.0 0.00 0.00 0.00 25 1016.0
20260501201540 61 332 7.0 10.0 0.00 0.00 0.00 24 1016.1
20260501200038 61 302 5.0 10.0 0.00 0.00 0.00 24 1016.3
20260501194537 59 332 7.0 11.0 0.00 0.00 0.00 24 1016.4
20260501193036 60 327 0.0 7.0 0.00 0.00 0.00 25 1016.6